This is the latest recevied weather packets stored in our database for station/object KE0PRS. If no packets are shown the sender has not sent any weather packets the latest 10 day(s).
| Time | Temp. | Humidity | Pressure | Rain* | Wind** | Luminosity | Snow |
|---|---|---|---|---|---|---|---|
| 1788036660 | 38.33° C | 30% | 1011.9 hPa | 0 mm | - | 618 W/m² | - |
| 1788036355 | 38.33° C | 30% | 1011.8 hPa | 0 mm | - | 628 W/m² | - |
| 1788036055 | 38.33° C | 31% | 1012.2 hPa | 0 mm | - | 636 W/m² | - |
| 1788035754 | 38.33° C | 30% | 1012.2 hPa | 0 mm | - | 648 W/m² | - |
| 1788035450 | 38.33° C | 31% | 1012.3 hPa | 0 mm | - | 654 W/m² | - |
| 1788035145 | 38.33° C | 30% | 1012.2 hPa | 0 mm | - | 666 W/m² | - |
| 1788034841 | 38.33° C | 31% | 1012.3 hPa | 0 mm | - | 669 W/m² | - |
| 1788034537 | 37.78° C | 30% | 1012.2 hPa | 0 mm | - | 678 W/m² | - |
| 1788034233 | 37.78° C | 31% | 1012.2 hPa | 0 mm | - | 688 W/m² | - |
| 1788033932 | 37.78° C | 33% | 1012.4 hPa | 0 mm | - | 696 W/m² | - |
| 1788033627 | 37.78° C | 35% | 1012.7 hPa | 0 mm | - | 701 W/m² | - |
| 1788033326 | 37.78° C | 32% | 1012.7 hPa | 0 mm | - | 711 W/m² | - |
| 1788033022 | 37.22° C | 33% | 1012.8 hPa | 0 mm | - | 714 W/m² | - |
| 1788032722 | 37.22° C | 33% | 1012.8 hPa | 0 mm | - | 727 W/m² | - |
| 1788032417 | 37.22° C | 33% | 1012.8 hPa | 0 mm | - | 733 W/m² | - |
| 1788032112 | 36.67° C | 33% | 1012.9 hPa | 0 mm | - | 745 W/m² | - |
| 1788031809 | 36.67° C | 33% | 1012.9 hPa | 0 mm | - | 762 W/m² | - |
| 1788031509 | 36.67° C | 35% | 1013.2 hPa | 0 mm | - | 775 W/m² | - |
| 1788031203 | 36.11° C | 34% | 1013.2 hPa | 0 mm | - | 802 W/m² | - |
| 1788030903 | 35.56° C | 34% | 1013.3 hPa | 0 mm | - | 821 W/m² | - |
| 1788030602 | 35.56° C | 36% | 1013.3 hPa | 0 mm | - | 691 W/m² | - |
| 1788030296 | 35° C | 37% | 1013.3 hPa | 0 mm | - | 570 W/m² | - |
| 1788029992 | 35° C | 37% | 1013.4 hPa | 0 mm | - | 636 W/m² | - |
| 1788029687 | 34.44° C | 38% | 1013.6 hPa | 0 mm | - | 346 W/m² | - |
| 1788029382 | 34.44° C | 37% | 1013.5 hPa | 0 mm | - | 317 W/m² | - |
* Rain latest hour (hover to see other rain measurements)
** Current wind speed in m/s (hover to see current wind gust speed)